When you browse on this site, cookies collect data to enhance your experience and personalize the content and advertising you see.
Visit our Privacy Policy to learn more. By continuing to use the site, you agree to this use of cookies and data.
  • In Sweden
  • List of Countries
  • For 7 days
  • Water Temperature
  • Weather Map
  • Weather Widgets
  • user-avatar
    Login

    Hourly Weather Priazovskoe

    Today, 7 June, Sunday

    Time Temperature Precipitation Wind Pressure Humidity
    00:00 +19°C° 0 mm 5 mps 761 mmHg 70%
    01:00 +18°C° 0 mm 4 mps 761 mmHg 70%
    02:00 +18°C° 0 mm 4 mps 761 mmHg 70%
    03:00 +18°C° 0 mm 4 mps 761 mmHg 73%
    04:00 +19°C° 0 mm 4 mps 761 mmHg 76%
    05:00 +19°C° 0 mm 4 mps 761 mmHg 79%
    06:00 +20°C° 0 mm 5 mps 761 mmHg 74%
    07:00 +22°C° 0 mm 5 mps 761 mmHg 68%
    08:00 +24°C° 0 mm 6 mps 761 mmHg 63%
    09:00 +26°C° 0 mm 6 mps 760 mmHg 60%
    10:00 +27°C° 0 mm 6 mps 760 mmHg 57%
    11:00 +28°C° 0 mm 6 mps 760 mmHg 53%
    12:00 +28°C° 0 mm 6 mps 760 mmHg 54%
    13:00 +28°C° 0 mm 6 mps 760 mmHg 54%
    14:00 +28°C° 0 mm 6 mps 760 mmHg 54%
    15:00 +28°C° 0 mm 6 mps 759 mmHg 54%
    16:00 +27°C° 0 mm 6 mps 759 mmHg 55%
    17:00 +27°C° 0 mm 5 mps 759 mmHg 56%
    18:00 +26°C° 0 mm 6 mps 759 mmHg 61%
    19:00 +23°C° 0 mm 6 mps 759 mmHg 67%
    20:00 +22°C° 0 mm 6 mps 759 mmHg 73%
    21:00 +22°C° 0 mm 6 mps 759 mmHg 75%
    22:00 +21°C° 0 mm 6 mps 759 mmHg 76%
    23:00 +21°C° 0 mm 6 mps 758 mmHg 78%

    Tomorrow, 8 June, Monday

    Time Temperature Precipitation Wind Pressure Humidity
    00:00 +21°C° 0 mm 6 mps 758 mmHg 79%
    01:00 +20°C° 0 mm 6 mps 758 mmHg 81%
    02:00 +20°C° 0 mm 6 mps 758 mmHg 82%
    03:00 +20°C° 0 mm 6 mps 758 mmHg 81%
    04:00 +20°C° 0 mm 6 mps 758 mmHg 81%
    05:00 +20°C° 0 mm 6 mps 758 mmHg 80%
    06:00 +21°C° 0 mm 7 mps 758 mmHg 72%
    07:00 +23°C° 0 mm 7 mps 758 mmHg 65%
    08:00 +26°C° 0 mm 8 mps 758 mmHg 58%
    09:00 +26°C° 0 mm 8 mps 758 mmHg 55%
    10:00 +27°C° 0 mm 8 mps 758 mmHg 52%
    11:00 +28°C° 0 mm 8 mps 758 mmHg 49%
    12:00 +28°C° 0 mm 8 mps 757 mmHg 49%
    13:00 +28°C° 0 mm 8 mps 757 mmHg 49%
    14:00 +28°C° 0 mm 7 mps 757 mmHg 48%
    15:00 +28°C° 0 mm 7 mps 757 mmHg 50%
    16:00 +28°C° 0 mm 7 mps 757 mmHg 52%
    17:00 +28°C° 0 mm 7 mps 757 mmHg 53%
    18:00 +26°C° 0 mm 7 mps 757 mmHg 59%
    19:00 +24°C° 0 mm 7 mps 757 mmHg 65%
    20:00 +23°C° 0 mm 6 mps 757 mmHg 70%
    21:00 +22°C° 0 mm 6 mps 757 mmHg 73%
    22:00 +22°C° 0 mm 6 mps 757 mmHg 75%
    23:00 +21°C° 0 mm 5 mps 757 mmHg 78%

    Day after tomorrow, 9 June, Tuesday

    Time Temperature Precipitation Wind Pressure Humidity
    00:00 +21°C° 0 mm 5 mps 757 mmHg 80%
    01:00 +21°C° 0 mm 5 mps 757 mmHg 81%
    02:00 +20°C° 0 mm 5 mps 757 mmHg 83%
    03:00 +20°C° 0 mm 5 mps 757 mmHg 82%
    04:00 +20°C° 0 mm 5 mps 757 mmHg 81%
    05:00 +20°C° 0 mm 4 mps 757 mmHg 80%
    06:00 +22°C° 0 mm 5 mps 757 mmHg 74%
    07:00 +23°C° 0 mm 5 mps 757 mmHg 69%
    08:00 +25°C° 0 mm 5 mps 757 mmHg 63%
    09:00 +26°C° 0 mm 6 mps 757 mmHg 60%
    10:00 +27°C° 0 mm 6 mps 757 mmHg 56%
    11:00 +28°C° 0 mm 6 mps 757 mmHg 52%
    12:00 +28°C° 0 mm 6 mps 757 mmHg 51%
    13:00 +28°C° 0 mm 5 mps 757 mmHg 49%
    14:00 +28°C° 0 mm 5 mps 757 mmHg 48%
    15:00 +28°C° 0 mm 5 mps 757 mmHg 50%
    16:00 +28°C° 0 mm 4 mps 757 mmHg 52%
    17:00 +27°C° 0 mm 4 mps 757 mmHg 54%
    18:00 +26°C° 0 mm 4 mps 757 mmHg 61%
    19:00 +24°C° 0 mm 3 mps 757 mmHg 69%
    20:00 +21°C° 0 mm 3 mps 757 mmHg 76%
    21:00 +21°C° 0 mm 3 mps 757 mmHg 79%
    22:00 +21°C° 0 mm 3 mps 757 mmHg 81%
    23:00 +21°C° 0 mm 2 mps 758 mmHg 83%

    10 June, Wednesday

    Time Temperature Precipitation Wind Pressure Humidity
    00:00 +21°C° 0 mm 2 mps 757 mmHg 83%
    01:00 +21°C° 0 mm 2 mps 757 mmHg 83%
    02:00 +20°C° 0 mm 2 mps 757 mmHg 82%
    03:00 +21°C° 0 mm 2 mps 757 mmHg 82%
    04:00 +21°C° 0 mm 3 mps 757 mmHg 82%
    05:00 +21°C° 0 mm 4 mps 757 mmHg 81%
    06:00 +23°C° 0 mm 4 mps 757 mmHg 75%
    07:00 +25°C° 0 mm 4 mps 757 mmHg 69%
    08:00 +27°C° 0 mm 4 mps 757 mmHg 62%
    09:00 +28°C° 0 mm 4 mps 757 mmHg 59%
    10:00 +28°C° 0 mm 5 mps 758 mmHg 56%
    11:00 +29°C° 0 mm 5 mps 758 mmHg 53%
    12:00 +29°C° 0 mm 5 mps 757 mmHg 50%
    13:00 +29°C° 0 mm 5 mps 757 mmHg 48%
    14:00 +29°C° 0 mm 5 mps 757 mmHg 46%
    15:00 +29°C° 0 mm 5 mps 757 mmHg 47%
    16:00 +29°C° 0 mm 5 mps 756 mmHg 48%
    17:00 +28°C° 0 mm 5 mps 756 mmHg 50%
    18:00 +27°C° 0 mm 5 mps 756 mmHg 55%
    19:00 +25°C° 0 mm 4 mps 756 mmHg 60%
    20:00 +23°C° 0 mm 4 mps 757 mmHg 65%
    21:00 +23°C° 0 mm 4 mps 756 mmHg 67%
    22:00 +22°C° 0 mm 4 mps 756 mmHg 70%
    23:00 +22°C° 0 mm 4 mps 756 mmHg 72%

    11 June, Thursday

    Time Temperature Precipitation Wind Pressure Humidity
    00:00 +22°C° 0 mm 4 mps 756 mmHg 72%
    01:00 +22°C° 0 mm 4 mps 756 mmHg 72%
    02:00 +21°C° 0 mm 5 mps 756 mmHg 73%
    03:00 +21°C° 0 mm 5 mps 756 mmHg 72%
    04:00 +21°C° 0 mm 5 mps 755 mmHg 71%
    05:00 +21°C° 0 mm 4 mps 755 mmHg 71%
    06:00 +23°C° 0 mm 5 mps 755 mmHg 67%
    07:00 +26°C° 0 mm 5 mps 755 mmHg 63%
    08:00 +27°C° 0 mm 5 mps 755 mmHg 58%
    09:00 +28°C° 0 mm 5 mps 755 mmHg 55%
    10:00 +29°C° 0 mm 5 mps 755 mmHg 51%
    11:00 +32°C° 0 mm 5 mps 755 mmHg 47%
    12:00 +32°C° 0 mm 5 mps 754 mmHg 47%
    13:00 +30°C° 0 mm 4 mps 754 mmHg 47%
    14:00 +30°C° 0 mm 4 mps 754 mmHg 48%
    15:00 +30°C° 0 mm 4 mps 753 mmHg 50%
    16:00 +29°C° 0 mm 4 mps 753 mmHg 53%
    17:00 +29°C° 0 mm 4 mps 753 mmHg 55%
    18:00 +28°C° 0 mm 3 mps 753 mmHg 60%
    19:00 +26°C° 0 mm 3 mps 753 mmHg 65%
    20:00 +25°C° 0 mm 3 mps 753 mmHg 70%
    21:00 +25°C° 0 mm 3 mps 753 mmHg 70%
    22:00 +24°C° 0 mm 3 mps 753 mmHg 70%
    23:00 +23°C° 0 mm 4 mps 753 mmHg 70%

    12 June, Friday

    Time Temperature Precipitation Wind Pressure Humidity
    00:00 +24°C° 0 mm 3 mps 752 mmHg 71%
    01:00 +22°C° 0 mm 3 mps 752 mmHg 72%
    02:00 +22°C° 0 mm 3 mps 752 mmHg 73%
    03:00 +22°C° 0 mm 3 mps 752 mmHg 74%
    04:00 +22°C° 0 mm 4 mps 751 mmHg 74%
    05:00 +22°C° 0 mm 4 mps 751 mmHg 75%
    06:00 +25°C° 0 mm 4 mps 751 mmHg 69%
    07:00 +27°C° 0 mm 3 mps 751 mmHg 63%
    08:00 +28°C° 0 mm 3 mps 751 mmHg 56%
    09:00 +29°C° 0 mm 4 mps 751 mmHg 54%
    10:00 +30°C° 0 mm 4 mps 751 mmHg 52%
    11:00 +32°C° 0 mm 5 mps 751 mmHg 50%
    12:00 +32°C° 0 mm 5 mps 751 mmHg 50%
    13:00 +32°C° 0 mm 5 mps 751 mmHg 50%
    14:00 +32°C° 0 mm 5 mps 751 mmHg 50%
    15:00 +30°C° 0 mm 5 mps 750 mmHg 53%
    16:00 +29°C° 0 mm 5 mps 750 mmHg 56%
    17:00 +29°C° 0 mm 5 mps 750 mmHg 58%
    18:00 +27°C° 0 mm 4 mps 750 mmHg 64%
    19:00 +26°C° 0 mm 4 mps 750 mmHg 70%
    20:00 +24°C° 0 mm 3 mps 750 mmHg 75%
    21:00 +24°C° 0 mm 3 mps 750 mmHg 74%
    22:00 +24°C° 0 mm 2 mps 750 mmHg 74%
    23:00 +24°C° 0 mm 2 mps 750 mmHg 73%
    Show more